Location: Warszawa
(52.2500°N, 21.0000°E)
Time: 21:08:04
(UTC+02:00)

Vanguard 2 - Pass Details

Date: 04 February 2023
Orbit: 553 x 2927 km, 32.9° (Epoch: 27 March)

Event Time Altitude Azimuth Distance (km) Brightness Sun altitude
Rises 20:06:45 0° 206° (SSW) 5,165 11.8 -33.4°
Reaches altitude 10° 20:10:48 10° 192° (SSW) 4,536 11.4 -34.0°
Enters shadow 20:15:21 19° 172° (S) 4,152 10.9 -34.6°
